Mecheria, Algeria

1:19 AM CET on August 25, 2019 (GMT +0100)
Mecheria

Weather History for DAAY - June, 2019

Change the Weather History Date:

Thursday, June 6, 2019

  Actual Average (WUND) Record (WUND)
Temperature  
Mean Temperature 75 °F -  
Max Temperature 93 °F - - (-1)
Min Temperature 57 °F - - (-1)
Cooling Degree Days 10    
Growing Degree Days 25 (Base 50)    
Moisture  
Dew Point 49 °F    
Average Humidity 39    
Maximum Humidity 72    
Minimum Humidity 11    
Precipitation  
Precipitation 0.00 in - - ()
Sea Level Pressure  
Sea Level Pressure 30.06 in    
Wind  
Wind Speed 14 mph ()    
Max Wind Speed 21 mph    
Max Gust Speed -    
Visibility 5.3 miles    
Events      
Averages and records for this station are not official NWS values.
T = Trace of Precipitation, MM = Missing Value Source: Averaged Metar Reports

Daily Weather History Graph

Daily Weather History Graph

Search for Another Location

Airport or City:

Astronomy

Jun. 06, 2019 Rise Set
Actual Time 5:50 AM CET 8:08 PM CET
Civil Twilight 5:22 AM CET 8:37 PM CET
Nautical Twilight 4:47 AM CET 9:12 PM CET
Astronomical Twilight 4:08 AM CET 9:50 PM CET
Moon 8:42 AM CET (6/6) 11:16 PM CET (6/6)
Length of Visible Light 15h 15m
Length of Day
14h 17m
Waxing Crescent, 12% of the Moon is Illuminated
Jun 6
Waxing Crescent
Jun 10
First Quarter
Jun 17
Full
Jun 25
Last Quarter
Jul 2
New

Hourly Weather History & Observations

Time (CET) Temp. Heat Index Dew Point Humidity Pressure Visibility Wind Dir Wind Speed Gust Speed Precip Events Conditions
12:00 AM 68.0 °F - 51.8 °F 56% 30.12 in 6.2 mi NNE 20.7 mph - N/A   Scattered Clouds
1:00 AM 66.2 °F - 51.8 °F 60% 30.12 in 6.2 mi NNE 18.4 mph - N/A   Partly Cloudy
5:00 AM 57.2 °F - 44.6 °F 63% 30.12 in 6.2 mi North 13.8 mph - N/A   Scattered Clouds
6:00 AM 59.0 °F - 50.0 °F 72% 30.12 in - North 16.1 mph - N/A   Clear
7:00 AM 60.8 °F - 51.8 °F 72% 30.12 in - North 13.8 mph - N/A   Clear
8:00 AM 62.6 °F - 51.8 °F 68% 30.12 in - North 16.1 mph - N/A   Clear
9:00 AM 64.4 °F - 50.0 °F 59% 30.12 in - North 13.8 mph - N/A   Clear
10:00 AM 68 °F - 50 °F 43%  in 6 mi North 13.8 mph - -   Partly Cloudy
10:00 AM 68.0 °F - 50.0 °F 52% 30.12 in - North 13.8 mph - N/A   Clear
11:00 AM 75.2 °F - 55.4 °F 50% 30.12 in - NNE 9.2 mph - N/A   Clear
12:00 PM 80.6 °F 80.8 °F 57.2 °F 45% 30.09 in - NNE 9.2 mph - N/A   Clear
1:00 PM 86.0 °F 85.4 °F 59.0 °F 40% 30.06 in - SSW 11.5 mph - N/A   Clear
2:00 PM 89.6 °F 87.7 °F 55.4 °F 31% 30.04 in - SSW 11.5 mph - N/A   Clear
3:00 PM 93.2 °F 90.8 °F 53.6 °F 26% 30.04 in 5.0 mi SSW 18.4 mph - N/A   Partly Cloudy
4:00 PM 93 °F - 48 °F 13%  in 5 mi SSW 16.1 mph - -   Scattered Clouds
4:00 PM 93.2 °F - 48.2 °F 21% 30.01 in 5.0 mi SSW 16.1 mph - N/A   Partly Cloudy
5:00 PM 93.2 °F - 46.4 °F 20% 30.01 in 5.0 mi South 20.7 mph - N/A   Partly Cloudy
6:00 PM 91.4 °F - 41.0 °F 17% 29.98 in 5.0 mi South 18.4 mph - N/A   Partly Cloudy
7:00 PM 90 °F - 42 °F 11%  in 5 mi SSW 16.1 mph - -   Scattered Clouds
7:00 PM 89.6 °F - 42.8 °F 20% 29.98 in 5.0 mi SSW 16.1 mph - N/A   Partly Cloudy
8:00 PM 89.6 °F - 42.8 °F 20% 30.01 in 5.0 mi South 13.8 mph - N/A   Partly Cloudy
9:00 PM 86.0 °F - 42.8 °F 22% 30.01 in 5.0 mi South 13.8 mph - N/A   Partly Cloudy
10:00 PM 80.6 °F - 42.8 °F 26% 30.01 in 5.0 mi SSW 11.5 mph - N/A   Partly Cloudy
11:00 PM 77.0 °F - 42.8 °F 29% 30.04 in 5.0 mi SSW 11.5 mph - N/A   Partly Cloudy